Location: Newark
(16.3678°N, 77.8722°E)
Time: 15:02:04
(UTC+00:00)

Tiros 1 - Pass Details

Date: 16 December 2019
Orbit: 630 x 664 km, 48.4° (Epoch: 26 January)

Event Time Altitude Azimuth Distance (km) Brightness Sun altitude
Rises 20:55:57 0° 236° (SW) 2,982 - -58.3°
Reaches altitude 10° 20:58:24 10° 244° (WSW) 2,069 - -57.8°
Maximum altitude 21:02:54 41° 314° (NW) 956 - -56.7°
Drops below altitude 10° 21:07:23 10° 24° (NNE) 2,056 - -55.7°
Sets 21:09:50 0° 32° (NNE) 2,962 - -55.1°
